Accueil
METAR-TAF:

METAR-TAF

Aéroports :

Keene, New Hampshire, États-Unis

latitude: 42-54N, longitude: 072-16W, altitude: 149 m

Observation

Le bulletin a été fait il y a 39 minutes, à 15:56 UTC
Vent 7 kt de sud-ouest
Température 19°C
Humidité 60%
Pression 1011 hPa
Visibilité: 16.1 km
Nuages fragmentés à une hauteur de 12000 ft

METAR: KEEN 011556Z AUTO 22007KT 10SM BKN120 19/11 A2986 RMK AO2 SLP116 T01890106 $

Heure: 12:35 (16:35 UTC)


TAF: absent

Observations et prévisions météorologiques de plus de 4000 aéroports (messages METAR et TAF).

Les stations disponibles sont représentées par des disques jaunes et rouges sur la carte.

Passer la souris dessus pour voir le nom de la station.

Cliquer dessus pour voir les observations et prévisions météorologiques.

Pour changer de carte: cliquez sur les boutons verts avec une croix noire pour zoomer, sur le bouton vert avec un tiret pour effectuer un zoom arrière, ou sur les flèches vertes pour les cartes adjacentes.


METAR-TAF: